Overview Statistics Trail Chart Weather Telemetry Raw packets
 

This is the latest recevied weather packets stored in our database for station/object VE3EP-1. If no packets are shown the sender has not sent any weather packets the latest 10 day(s).

<< 20 21 22 23 24 25 26 >>
Time Temp. Humidity Pressure Rain* Wind** Luminosity Snow
1788125046 21.67° C 81% 1020.9 hPa 0.25 mm - - -
1788124447 21.67° C 81% 1020.7 hPa 0.25 mm - - -
1788123848 21.11° C 84% 1020.8 hPa 0.25 mm - - -
1788123262 20.56° C 86% 1020.8 hPa 0.25 mm - - -
1788122647 20.56° C 85% 1021.1 hPa 0.25 mm - - -
1788122047 20.56° C 85% 1020.9 hPa 0.25 mm - - -
1788121448 20.56° C 86% 1020.9 hPa 0 mm - - -
1788120849 20.56° C 86% 1021 hPa 0 mm - - -
1788120248 20.56° C 85% 1021 hPa 0 mm - - -
1788119648 20.56° C 85% 1020.9 hPa 0 mm - - -
1788118448 20° C 83% 1020.8 hPa 0 mm - - -
1788117847 20° C 85% 1020.7 hPa 0 mm - - -
1788117247 19.44° C 87% 1020.9 hPa 0 mm - - -
1788116648 19.44° C 89% 1021.1 hPa 0 mm - - -
1788116048 19.44° C 89% 1021.1 hPa 0 mm - - -
1788115448 19.44° C 88% 1021.5 hPa 0 mm - - -
1788114848 20° C 88% 1021.3 hPa 0 mm - - -
1788114251 20° C 87% 1021.7 hPa 0 mm - - -
1788113652 20° C 87% 1021.5 hPa 0 mm - - -
1788112449 20° C 88% 1021.7 hPa 0.25 mm - - -
1788111849 20° C 89% 1021.7 hPa 0.25 mm - - -
1788111249 20° C 88% 1021.8 hPa 0.25 mm - - -
1788110648 20° C 87% 1021.8 hPa 0.25 mm - - -
1788110049 20° C 86% 1021.8 hPa 0.25 mm - - -
1788109447 20.56° C 84% 1021.6 hPa 0 mm - - -

* Rain latest hour (hover to see other rain measurements)
** Current wind speed in m/s (hover to see current wind gust speed)